Weather History for Poughkeepsie, NY

Change the Weather History Date:

Tuesday, January 15, 2013

  Actual Average Record
Temperature  
Mean Temperature 35 °F 25 °F  
Max Temperature 38 °F 35 °F 56 °F (1962)
Min Temperature 31 °F 15 °F -18 °F (1964)
Degree Days  
Heating Degree Days 30 40  
Month to date heating degree days 506 592  
Since 1 July heating degree days 2556 2921  
Cooling Degree Days 0 0  
Month to date cooling degree days 0 0  
Year to date cooling degree days 0 0  
Moisture  
Dew Point 22 °F    
Average Humidity 61    
Maximum Humidity 70    
Minimum Humidity 52    
Precipitation  
Precipitation 0.01 in 0.10 in 0.56 in (1958)
Month to date precipitation 0.31 1.53  
Year to date precipitation 0.31 1.53  
Sea Level Pressure  
Sea Level Pressure 30.28 in    
Wind  
Wind Speed 4 mph (NNE)    
Max Wind Speed 9 mph    
Max Gust Speed 14 mph    
Visibility 10 miles    
Events Rain    
T = Trace of Precipitation, MM = Missing Value Source: NWS Daily Summary

Daily Weather History Graph

Daily Weather History Graph

Search for Another Location

Airport:

Trip Planner

Search our weather history database for the weather conditions in past years. The results will help you decide how hot, cold, wet, or windy it might be!

Date:

Astronomy

Jan. 15, 2013 Rise Set
Actual Time 7:19 AM EST 4:50 PM EST
Civil Twilight 6:49 AM EST 5:21 PM EST
Nautical Twilight 6:15 AM EST 5:55 PM EST
Astronomical Twilight 5:41 AM EST 6:28 PM EST
Moon 9:20 AM EST (1/15) 9:42 PM EST (1/15)
Length of Visible Light 10h 31m
Length of Day
9h 30m
Waxing Crescent, 19% of the Moon is Illuminated
Jan 15
Waxing Crescent
Jan 18
First Quarter
Jan 26
Full
Feb 3
Last Quarter
Feb 10
New

Hourly Weather History & Observations

Time (EST) Temp. Windchill Dew Point Humidity Pressure Visibility Wind Dir Wind Speed Gust Speed Precip Events Conditions
12:53 AM 36.0 °F 32.1 °F 23.0 °F 59% 30.28 in 10.0 mi NNE 4.6 mph - 0.00 in Rain Light Rain
1:53 AM 35.1 °F - 24.1 °F 64% 30.27 in 10.0 mi Calm Calm - 0.01 in   Partly Cloudy
2:53 AM 35.1 °F - 26.1 °F 70% 30.25 in 10.0 mi Calm Calm - N/A   Mostly Cloudy
3:53 AM 36.0 °F 31.1 °F 23.0 °F 59% 30.25 in 10.0 mi North 5.8 mph - N/A   Overcast
4:53 AM 35.1 °F 30.1 °F 23.0 °F 61% 30.24 in 10.0 mi NNE 5.8 mph - N/A   Overcast
5:53 AM 33.1 °F 30.0 °F 21.9 °F 64% 30.27 in 10.0 mi NNE 3.5 mph - N/A   Partly Cloudy
6:53 AM 32.0 °F 27.5 °F 21.9 °F 66% 30.30 in 10.0 mi NE 4.6 mph - N/A   Clear
7:53 AM 32.0 °F 26.4 °F 21.9 °F 66% 30.32 in 10.0 mi NE 5.8 mph - N/A   Clear
8:53 AM 34.0 °F 29.8 °F 23.0 °F 64% 30.34 in 10.0 mi NNE 4.6 mph - N/A   Clear
9:53 AM 35.1 °F 30.1 °F 23.0 °F 61% 30.34 in 10.0 mi North 5.8 mph - N/A   Clear
10:53 AM 36.0 °F 32.1 °F 21.9 °F 57% 30.33 in 10.0 mi North 4.6 mph - N/A   Clear
11:53 AM 37.0 °F 33.3 °F 21.9 °F 54% 30.32 in 10.0 mi Variable 4.6 mph - N/A   Clear
12:53 PM 37.0 °F 30.4 °F 21.9 °F 54% 30.28 in 10.0 mi North 9.2 mph - N/A   Clear
1:53 PM 37.9 °F 32.7 °F 21.0 °F 51% 30.27 in 10.0 mi North 6.9 mph - N/A   Clear
2:53 PM 37.9 °F 34.4 °F 21.0 °F 51% 30.25 in 10.0 mi NNE 4.6 mph - N/A   Clear
3:53 PM 37.9 °F 35.5 °F 21.0 °F 51% 30.28 in 10.0 mi NNW 3.5 mph - N/A   Clear
4:53 PM 36.0 °F 33.3 °F 21.9 °F 57% 30.28 in 10.0 mi North 3.5 mph - N/A   Clear
5:53 PM 36.0 °F - 21.0 °F 55% 30.28 in 10.0 mi Calm Calm - N/A   Clear
6:53 PM 35.1 °F 32.2 °F 23.0 °F 61% 30.29 in 10.0 mi North 3.5 mph - N/A   Overcast
7:53 PM 35.1 °F 32.2 °F 21.9 °F 59% 30.25 in 10.0 mi NE 3.5 mph - N/A   Overcast
8:53 PM 35.1 °F 31.0 °F 21.0 °F 57% 30.26 in 10.0 mi NNE 4.6 mph - N/A   Overcast
9:53 PM 34.0 °F 28.8 °F 19.9 °F 56% 30.24 in 10.0 mi NNE 5.8 mph - N/A   Overcast
10:53 PM 35.1 °F - 19.9 °F 54% 30.25 in 10.0 mi Calm Calm - N/A   Overcast
11:53 PM 34.0 °F 31.0 °F 21.0 °F 59% 30.23 in 10.0 mi North 3.5 mph - N/A   Overcast